ECMWFFLT1_prec_cthk_234.txt.gz
RH
50 51 49 45 44 42 42 42 42 42 42 44 47 50 51 52 54 57 59 59 59 59 58 58 58 59 60 60 62 66 69 70 74 78 81 81 79 79 76 68 60 57 56 56 56 56 58 58 56 55 56 58 59 58 57 54 53 52 51 50 49 48 48
51 50 47 42 40 38 37 36 35 35 36 39 42 44 46 47 48 52 55 57 58 58 59 59 59 58 57 58 61 64 68 70 73 78 81 82 83 83 80 72 64 59 58 57 56 54 55 55 55 56 57 58 59 59 58 56 55 54 55 54 52 51 52
47 45 42 39 37 35 34 33 31 28 28 33 37 39 41 43 45 47 51 54 55 57 58 59 60 59 56 56 59 63 66 68 71 76 79 81 84 86 82 76 72 69 66 63 58 54 54 53 53 54 57 59 59 60 60 58 57 57 58 59 57 55 55
42 38 36 35 34 33 32 31 28 26 26 29 33 36 38 39 40 43 47 51 51 53 57 58 58 59 57 56 57 61 65 66 67 71 77 79 80 82 82 78 75 74 73 69 63 58 56 54 51 53 61 63 60 59 60 60 60 60 60 61 60 58 57
40 36 33 32 30 29 27 26 25 25 26 27 30 32 35 35 36 38 43 47 49 50 53 56 58 59 59 58 56 58 63 66 66 68 74 79 79 79 81 81 77 76 75 73 69 64 61 59 53 53 60 64 62 60 59 58 59 60 60 61 61 60 58
39 34 30 29 28 27 26 25 25 24 26 27 28 29 29 29 31 33 36 42 47 50 50 53 56 58 60 61 58 57 59 62 66 67 70 78 82 80 80 82 79 76 74 71 68 67 65 63 60 57 59 63 62 62 61 60 58 58 58 60 60 59 57
36 30 28 27 28 29 29 28 27 25 25 25 24 24 24 25 27 28 29 33 39 45 47 49 53 55 58 62 61 61 60 59 63 67 68 74 80 81 80 80 78 75 73 68 63 62 63 64 63 62 63 65 63 63 66 65 64 65 63 58 58 58 57
35 31 29 29 29 30 30 29 30 29 28 26 25 24 23 22 23 25 27 28 30 34 38 42 46 50 53 57 60 63 62 60 61 66 69 71 76 80 79 77 77 75 73 67 60 56 58 60 60 62 68 72 68 67 70 70 70 74 72 63 58 58 59
37 33 31 30 31 31 29 29 29 29 30 30 29 28 28 25 23 24 25 26 28 28 29 33 37 41 46 51 55 60 62 61 62 64 67 68 72 77 79 76 75 75 75 71 65 59 58 59 57 57 63 67 67 69 73 72 73 77 79 73 62 57 59
37 33 30 30 32 31 30 29 28 28 31 32 31 30 30 29 28 26 24 24 28 29 29 29 30 33 36 40 46 52 58 62 64 65 66 68 70 75 79 78 77 76 76 75 71 66 63 63 60 57 57 59 63 67 70 73 73 74 79 78 68 60 59
37 34 29 28 30 29 29 29 29 29 31 32 31 30 30 30 30 30 27 25 27 29 29 29 30 31 32 34 36 41 49 58 65 66 67 69 71 72 75 78 77 77 75 74 72 69 66 64 63 60 58 59 61 64 66 70 72 72 74 77 77 71 64
38 36 31 28 30 31 31 31 31 31 31 31 30 29 30 31 32 33 31 28 27 28 28 29 30 32 33 33 33 35 40 49 60 66 68 70 72 73 72 74 77 77 76 74 72 70 68 66 64 63 61 60 62 62 62 64 69 71 71 73 77 78 71
39 36 32 31 33 34 33 33 32 32 32 31 30 30 31 32 32 33 32 30 29 28 28 28 30 32 35 35 35 35 37 43 52 61 66 69 71 73 70 69 73 77 77 76 73 71 71 69 67 65 64 63 62 61 60 62 68 73 72 70 71 76 76
38 34 33 34 35 35 33 32 32 32 32 32 32 33 34 34 34 33 32 32 32 31 29 28 29 32 36 37 38 38 39 41 47 55 64 68 68 70 69 67 69 73 76 76 76 75 74 73 70 67 67 66 64 62 61 62 67 73 75 73 72 74 76
36 35 36 36 36 35 32 32 30 30 31 32 33 35 35 35 35 34 33 33 34 33 31 31 30 31 35 38 39 41 43 44 46 52 62 68 67 67 68 67 68 71 74 75 76 78 77 76 74 71 69 67 64 63 63 63 65 69 71 72 71 72 74
37 37 36 36 35 34 31 30 29 29 31 32 33 34 35 35 34 33 34 35 35 35 34 33 32 31 33 37 40 42 45 48 49 53 62 69 68 66 67 68 69 71 74 75 76 77 79 78 76 74 72 69 67 66 66 66 67 68 68 69 70 70 70
39 38 36 35 33 31 29 29 29 31 32 32 32 33 33 32 32 32 34 35 36 36 36 34 33 32 32 34 38 41 44 48 50 54 63 70 70 66 66 67 68 70 72 74 75 77 77 78 77 76 74 72 70 70 70 70 70 69 68 68 69 69 70
40 38 36 33 30 29 29 30 32 32 32 32 31 31 31 31 32 33 35 36 37 37 36 36 36 34 32 32 36 38 41 44 47 53 61 69 71 68 65 66 68 70 71 72 74 75 76 76 76 75 75 74 72 72 71 71 72 71 71 70 69 70 71
40 38 34 32 31 30 31 33 33 33 33 33 32 33 33 32 33 35 35 36 37 37 37 37 38 37 34 32 34 37 39 42 45 49 57 66 71 71 67 65 67 70 72 71 72 73 74 72 72 72 74 75 74 73 71 71 71 71 72 73 72 71 70
37 34 32 32 32 32 33 34 34 34 35 36 36 36 36 35 36 37 37 37 37 37 39 39 39 40 38 34 34 36 38 40 43 46 51 59 69 75 74 69 68 69 71 71 72 72 71 70 69 69 71 73 74 74 72 72 72 72 72 73 74 72 70
32 30 30 32 33 34 35 35 36 38 39 39 39 38 38 38 38 39 39 38 38 39 40 40 40 41 40 37 36 36 36 38 40 44 48 52 60 73 79 76 70 68 69 70 72 72 71 69 69 70 71 71 72 72 73 73 74 74 73 73 73 73 71
29 29 30 32 35 36 37 38 40 41 41 40 40 39 38 38 39 40 42 42 41 41 41 41 40 41 41 40 39 37 37 38 39 41 46 49 52 64 77 79 73 69 68 68 71 73 72 71 71 72 72 72 71 72 73 74 75 76 75 74 74 74 73
28 29 31 35 38 39 39 41 43 42 41 40 39 38 38 38 40 42 45 45 45 44 43 43 43 43 43 42 42 39 38 39 38 39 44 49 51 56 70 79 77 71 69 69 69 70 71 72 72 72 71 70 70 72 73 73 75 75 75 74 73 74 74
28 28 32 36 40 40 41 44 44 42 40 39 38 37 38 39 41 43 45 46 46 45 45 45 46 46 46 45 44 42 41 40 40 40 42 47 51 53 62 75 80 76 72 72 71 68 68 69 68 68 68 67 67 69 70 72 73 75 75 74 73 73 73
28 30 34 38 41 42 42 44 43 41 40 38 37 36 38 41 44 45 45 46 46 46 46 46 48 48 49 48 46 45 43 42 41 41 42 46 51 54 58 69 80 81 76 73 71 69 71 73 69 65 65 65 65 66 68 69 72 74 75 75 75 76 76
29 32 37 41 43 43 44 45 44 41 39 37 36 37 39 42 44 45 46 47 47 48 48 48 49 50 49 50 49 48 46 44 42 43 44 46 50 55 57 64 75 81 79 74 70 67 72 76 73 67 65 64 63 65 66 67 69 72 75 75 75 76 77
30 35 39 42 42 43 44 44 43 40 38 37 38 41 44 46 46 47 48 50 52 52 51 51 51 52 50 50 50 50 48 46 43 43 45 47 50 54 57 60 70 80 81 76 69 66 67 71 72 69 66 64 63 64 65 65 67 70 73 75 75 75 76
33 37 41 43 43 43 43 41 40 38 36 37 41 46 49 51 51 51 52 56 57 57 55 54 54 54 54 52 51 51 50 48 45 43 44 47 49 52 56 59 66 77 83 78 72 69 66 67 69 69 66 64 64 65 65 66 69 71 73 75 76 77 77
37 41 43 44 44 43 41 40 38 37 37 40 46 50 53 54 56 57 58 60 61 59 57 57 57 58 58 56 54 53 51 50 48 44 43 47 49 53 57 61 64 74 81 80 75 70 67 66 68 67 65 64 65 65 66 69 73 75 77 78 79 78 76
40 42 44 45 43 41 40 39 38 37 40 45 50 54 56 58 60 62 61 62 62 60 58 58 58 59 60 60 58 56 53 51 49 46 44 47 51 56 60 64 68 73 81 82 76 69 66 66 67 66 64 64 65 65 67 70 73 75 78 81 81 78 76
40 43 45 44 41 40 39 39 38 39 43 47 51 56 60 62 63 63 63 63 63 62 60 60 60 60 60 61 61 59 56 54 52 49 46 47 52 58 62 66 70 75 80 82 77 69 66 65 65 63 63 64 65 67 71 76 75 74 77 81 83 80 80
43 45 45 43 40 40 39 39 40 42 44 47 51 58 62 63 64 64 65 65 64 63 63 62 62 61 61 62 62 60 58 56 54 51 48 46 50 58 63 67 73 78 82 81 75 68 65 64 64 63 62 65 66 70 78 83 77 73 76 79 81 82 84
45 45 43 41 41 41 41 40 41 42 45 48 53 59 63 64 64 64 65 65 65 65 65 63 62 62 62 63 63 61 59 58 56 53 49 47 49 56 62 67 74 80 83 81 75 70 66 65 65 64 64 68 71 73 81 86 78 71 72 75 79 84 85
45 43 41 41 43 43 42 42 43 43 45 49 55 60 63 65 66 65 64 65 66 66 66 64 62 62 62 63 64 62 60 58 57 54 51 48 50 56 62 67 73 79 82 82 78 73 68 67 68 67 69 75 76 76 82 87 81 71 65 66 74 83 84
43 41 41 42 45 45 45 44 45 44 46 52 58 61 63 66 67 66 64 63 65 67 68 65 63 61 62 64 64 64 62 59 58 56 53 49 50 57 65 69 74 78 81 81 79 75 71 70 70 70 74 79 79 79 82 83 80 72 61 55 63 75 81
42 41 42 44 46 46 45 45 46 46 50 54 58 60 63 66 68 69 66 62 62 65 67 67 65 62 62 64 65 65 63 61 59 56 54 50 50 55 65 72 75 77 80 79 77 76 74 73 72 74 78 79 78 80 80 77 75 72 60 50 53 63 74
42 42 43 45 46 46 45 45 45 47 51 55 58 60 63 67 70 72 70 65 62 62 65 69 68 64 63 65 66 66 64 63 60 58 55 53 52 55 63 72 76 78 78 78 78 77 75 73 75 78 78 78 76 77 76 74 71 66 57 50 50 54 61
42 43 44 45 46 46 46 47 46 45 46 52 58 61 64 67 70 73 73 69 64 62 63 67 69 67 66 66 68 68 67 65 64 61 57 55 54 57 62 70 75 78 78 80 82 82 77 74 76 78 79 78 75 73 73 74 67 56 51 53 54 53 54

ECMWFFLT1_prec_cthk_240.txt.gz
RH
50 46 42 38 35 33 30 28 26 24 24 25 25 25 25 26 25 25 26 28 32 36 39 44 48 52 55 58 59 58 58 58 57 57 58 58 60 62 65 68 72 77 81 80 75 73 71 67 66 68 65 59 57 55 53 53 50 46 42 40 38 38 39
49 47 45 41 37 35 33 31 28 26 25 25 25 26 26 27 27 27 27 28 31 33 35 37 41 45 49 52 55 57 59 59 58 57 57 58 59 60 63 67 69 72 78 81 80 76 74 71 67 67 65 60 57 55 53 53 51 49 46 44 42 41 39
50 50 47 44 38 35 33 31 29 28 27 26 25 24 25 28 28 28 28 28 29 31 32 33 36 40 45 48 51 55 58 60 59 57 57 57 59 60 62 65 68 71 73 78 81 80 78 74 69 68 65 60 57 55 54 53 52 51 49 48 46 44 42
51 50 47 43 38 34 32 29 28 28 27 27 26 25 25 26 28 28 28 28 28 28 30 30 31 33 37 40 45 51 54 55 56 56 57 57 58 59 61 63 67 69 71 75 80 83 82 78 73 70 67 63 59 56 54 54 53 53 52 51 49 48 47
49 46 44 42 38 35 33 31 30 28 27 28 27 27 27 26 27 28 28 28 27 28 28 29 29 29 30 32 35 40 45 49 50 51 54 56 57 58 59 61 63 65 68 74 80 82 84 83 79 74 70 67 62 57 55 55 53 53 53 53 52 52 52
43 42 42 41 38 36 35 34 32 29 27 28 29 29 29 29 28 28 28 28 27 27 27 27 28 28 28 29 30 32 35 40 44 46 48 52 56 58 58 58 61 62 64 71 79 83 84 86 84 80 77 73 67 60 57 56 54 54 54 53 53 54 54
40 40 40 39 36 34 34 32 30 27 26 28 29 30 30 30 30 28 28 28 27 26 26 26 27 27 27 27 28 29 30 32 36 40 43 47 51 55 57 57 60 61 63 70 81 84 84 85 86 85 82 80 75 65 59 59 57 55 54 53 53 54 55
42 42 38 34 31 30 31 29 26 26 27 28 29 29 29 29 29 28 29 28 27 26 27 28 28 27 26 26 27 28 29 29 31 33 36 41 46 50 54 56 58 61 62 68 80 87 86 86 87 85 82 83 83 72 61 59 60 57 56 54 54 54 55
43 38 32 29 28 27 28 27 26 25 26 28 29 28 28 28 28 28 29 30 29 28 28 28 29 28 27 26 27 27 28 29 31 31 31 35 40 45 49 53 57 61 62 65 74 84 88 88 87 86 84 84 85 78 67 61 60 58 57 56 55 56 57
38 32 27 27 27 27 28 28 26 26 26 27 27 27 28 28 28 28 29 29 29 30 29 29 29 30 29 29 28 27 27 27 29 32 32 32 34 39 43 48 54 60 63 64 69 78 85 89 88 87 86 84 81 76 70 65 62 59 57 57 58 58 59
32 27 26 26 27 27 28 28 27 26 26 25 25 26 26 26 27 27 28 28 28 29 29 29 30 31 31 31 30 29 28 27 27 31 33 32 32 35 40 45 51 59 63 65 69 75 82 88 90 88 86 84 78 71 69 69 65 60 58 58 59 60 62
30 28 26 25 26 27 26 26 25 25 25 24 24 24 25 25 26 26 26 26 27 27 28 29 29 30 30 30 30 29 29 29 27 29 32 34 33 35 39 44 50 57 64 66 68 73 80 87 90 90 88 85 78 71 69 70 67 61 59 58 58 60 62
30 29 26 24 25 25 24 24 24 24 24 24 25 25 26 26 27 28 28 27 27 26 27 28 28 28 29 29 30 30 31 31 29 28 30 33 34 35 37 42 47 54 63 70 71 70 77 86 90 91 91 87 80 75 71 71 69 65 63 60 58 58 60
31 30 27 25 24 23 23 23 24 24 24 24 25 25 26 28 29 30 30 29 28 28 29 29 29 28 28 29 30 32 33 33 31 29 29 32 35 36 37 41 46 50 56 67 73 73 74 82 88 91 92 89 85 81 77 74 72 69 66 63 60 58 59
31 31 29 26 24 23 23 23 24 25 24 25 25 25 27 29 30 31 31 31 30 30 30 31 30 30 30 31 32 34 35 35 34 32 30 30 33 36 38 40 44 47 49 57 70 76 75 77 83 89 90 89 87 85 83 79 76 72 68 64 62 61 60
33 32 29 25 24 25 25 25 25 24 25 25 25 26 28 29 30 31 31 32 31 31 31 31 32 32 33 34 35 35 36 36 36 34 32 31 32 34 37 39 42 45 48 52 63 75 77 75 79 85 88 88 86 85 84 82 79 76 70 64 62 61 60
33 31 28 25 25 26 25 25 25 25 25 26 26 28 29 30 30 30 31 32 31 31 30 31 32 33 34 35 37 37 37 37 38 37 35 34 33 32 35 38 40 43 47 51 57 69 78 77 77 82 85 86 85 84 83 82 80 79 73 66 63 62 61
32 29 27 26 26 26 25 25 25 25 26 26 28 29 30 30 30 30 30 31 30 29 29 29 31 33 34 35 36 38 38 38 38 39 38 37 35 33 32 35 39 41 44 49 55 65 76 78 77 80 84 85 85 85 84 82 81 79 75 69 66 66 65
30 28 27 25 25 25 26 26 26 26 26 27 29 30 31 31 30 29 29 28 27 27 27 29 30 33 34 35 36 38 39 40 39 38 38 38 37 35 33 33 36 39 42 46 51 62 73 78 77 79 83 85 85 85 84 84 82 81 78 73 71 70 69
29 28 26 25 25 26 26 26 26 27 27 29 31 32 32 30 29 28 28 27 26 26 28 31 33 35 36 36 37 39 40 41 41 39 38 38 38 37 35 33 34 37 41 44 48 56 69 77 78 78 81 84 86 86 85 85 85 85 83 79 77 74 73
28 27 26 26 26 26 26 26 27 28 29 32 33 32 31 30 29 28 27 27 27 29 31 34 36 37 38 39 40 41 41 41 41 40 39 39 38 37 36 34 34 35 38 42 44 50 62 74 79 78 79 82 85 86 86 86 86 87 86 84 82 80 77
28 27 27 26 26 25 26 27 28 30 32 33 33 32 31 30 29 28 27 27 29 32 35 38 40 41 42 43 44 45 44 43 42 41 40 39 39 39 37 36 35 35 37 39 42 46 54 66 75 78 77 79 83 85 86 85 85 86 86 86 86 84 82
27 27 26 26 25 26 27 29 30 32 33 33 33 33 31 30 29 28 27 28 30 35 39 42 44 45 47 48 49 50 49 47 45 44 42 41 41 42 40 38 37 36 37 38 39 43 49 59 69 74 75 76 80 84 85 85 84 84 83 85 85 84 83
27 27 26 25 26 27 28 31 32 32 33 33 33 32 31 30 29 28 29 30 32 37 41 44 45 48 51 53 54 54 54 52 50 49 47 46 45 44 43 41 39 38 38 37 38 40 45 53 63 71 73 74 77 81 84 84 84 83 81 81 82 82 82
27 26 26 26 27 28 30 32 32 32 33 33 32 31 30 30 30 29 29 31 35 39 43 45 47 50 53 54 55 56 55 55 54 53 52 50 49 47 46 44 42 41 39 38 37 39 41 48 58 66 73 75 76 78 82 84 82 81 80 79 80 80 80
26 27 27 26 28 29 31 32 32 32 33 33 32 31 31 31 31 30 31 33 37 41 44 46 50 53 54 54 55 56 56 56 56 55 54 53 52 50 49 47 45 44 42 39 38 38 40 45 51 61 71 78 77 76 80 83 82 80 79 78 78 78 77
27 27 28 27 28 29 31 31 32 33 34 33 33 33 34 34 32 32 33 35 37 41 44 47 52 55 55 54 54 55 56 57 56 56 55 54 54 53 51 49 48 46 45 42 40 40 41 44 48 53 64 76 78 75 76 81 82 80 80 78 77 75 74
28 28 28 27 28 30 31 30 31 33 34 34 34 35 35 34 33 34 35 36 37 39 42 48 53 56 56 55 55 56 57 57 57 57 56 55 55 55 54 52 51 48 47 46 44 43 43 45 48 51 57 68 77 76 75 77 80 79 79 78 75 73 71
28 27 27 28 30 32 32 31 33 34 34 34 35 36 35 34 34 35 35 36 37 38 41 47 54 57 57 56 56 57 58 58 58 57 56 56 57 57 56 55 54 51 47 46 46 44 44 46 50 53 55 62 72 77 75 74 75 76 76 75 74 72 70
27 26 27 30 32 33 33 34 34 34 35 36 36 37 37 36 35 34 34 35 36 37 42 48 54 57 58 58 58 58 59 60 58 57 57 57 58 59 58 58 57 53 48 46 45 45 45 46 49 54 56 60 68 77 78 75 73 73 72 72 73 72 70
27 28 30 32 33 33 34 34 34 34 36 38 38 38 39 38 36 35 34 34 35 37 41 47 53 57 60 59 59 60 60 60 59 57 57 59 60 60 60 59 59 56 51 47 45 46 47 48 50 54 59 62 68 76 80 78 75 72 71 72 73 73 72
29 30 32 32 32 33 34 34 34 36 38 39 40 40 39 37 37 37 36 35 35 36 40 45 51 56 60 62 61 60 60 61 59 58 58 59 60 61 60 60 60 59 54 49 47 47 49 51 52 56 61 65 68 73 80 82 78 74 72 73 75 76 75
31 30 30 31 32 33 34 35 35 37 39 40 41 40 38 37 37 38 39 37 36 36 41 47 53 58 62 63 63 62 62 62 61 59 58 59 60 61 60 60 61 60 57 52 48 49 51 53 54 57 62 65 67 70 78 83 80 75 74 75 77 77 74
32 30 29 31 33 35 36 37 37 39 40 41 41 40 38 36 37 39 40 37 37 40 45 50 57 63 64 65 65 65 65 64 63 60 59 59 61 62 61 61 60 60 58 54 51 51 54 55 56 59 62 65 67 69 75 80 79 75 74 75 77 77 72
34 31 30 31 34 36 39 39 39 39 41 42 42 40 38 37 37 38 38 37 40 45 48 52 59 66 67 67 68 68 67 66 65 62 61 62 62 63 63 63 63 61 59 57 55 54 55 57 59 62 65 67 68 69 73 78 79 77 75 74 75 74 71
34 32 31 32 34 37 40 40 40 40 41 42 41 40 39 38 37 36 37 39 43 48 50 54 61 66 69 70 71 71 70 69 67 65 64 65 65 65 65 65 65 64 62 59 58 56 56 58 61 65 69 70 69 69 72 77 81 79 76 73 73 73 71
34 33 33 34 36 38 40 40 40 40 41 42 42 41 40 38 37 36 37 39 44 48 52 56 62 67 70 71 71 72 72 71 69 66 65 66 67 67 67 67 66 64 62 61 59 59 58 60 62 67 71 71 69 69 73 79 82 80 77 75 74 73 72
35 35 35 36 37 39 40 40 40 40 41 42 43 42 40 39 38 37 36 38 43 47 52 58 64 68 70 70 70 71 72 73 72 69 66 67 68 68 68 68 67 64 61 59 58 58 59 60 64 69 72 71 70 73 77 82 83 81 78 77 76 75 74

ECMWFFLT1_prec_cthk_246.txt.gz
RH
39 39 38 39 38 36 32 28 26 26 27 30 32 32 31 31 31 31 30 31 30 30 29 26 25 25 25 24 26 27 29 32 35 39 43 47 50 53 55 56 56 57 57 57 58 58 61 65 71 76 81 81 79 77 73 68 64 60 59 57 54 53 53
39 38 37 35 34 30 27 26 26 26 26 27 29 30 30 29 29 30 31 31 31 31 31 30 29 28 26 24 23 23 24 25 26 28 30 32 35 40 45 50 55 57 58 59 58 58 57 58 62 66 73 78 80 80 76 72 68 64 62 59 57 56 53
38 36 34 32 29 27 26 26 26 27 27 27 27 27 28 28 29 30 31 31 31 30 31 31 31 30 28 27 26 24 22 22 24 24 25 26 27 29 31 37 45 52 57 61 61 61 60 58 57 59 64 70 76 79 80 78 73 68 65 63 62 60 55
37 34 30 29 28 27 27 27 26 26 26 25 26 26 26 26 27 29 30 30 30 29 29 29 30 30 30 29 28 27 24 23 23 24 24 25 25 26 26 27 32 39 48 56 61 63 62 60 58 57 58 63 69 74 78 80 78 74 69 65 64 62 59
36 32 29 28 28 28 28 27 26 26 25 24 25 25 25 25 26 27 27 28 27 26 26 27 28 29 30 30 30 29 27 25 24 24 24 25 25 25 25 25 26 28 33 41 50 55 58 60 60 58 57 58 62 67 72 76 79 79 74 68 64 64 64
33 30 29 29 29 29 29 27 25 25 24 24 25 25 25 25 25 24 25 25 23 22 23 24 23 24 25 26 26 27 28 28 26 24 24 25 25 25 25 24 24 24 26 29 34 39 45 51 55 56 57 57 58 61 66 71 75 79 78 73 67 63 63
32 30 30 29 29 30 29 27 25 24 24 24 25 25 24 24 23 23 24 25 23 22 23 21 20 20 20 20 20 21 24 26 26 26 26 25 26 26 25 25 24 23 24 25 27 29 33 39 45 49 53 55 55 55 59 66 71 77 80 77 70 65 63
32 31 30 29 29 28 28 27 25 24 24 25 25 25 25 24 23 23 24 26 26 26 25 23 21 19 19 18 19 19 20 21 23 24 25 25 25 26 26 26 26 25 24 24 26 28 29 32 37 42 47 51 53 55 57 61 67 74 79 79 75 70 66
32 32 32 30 29 28 28 27 27 25 24 24 25 25 25 24 23 24 25 26 26 27 26 23 21 20 19 19 19 19 19 19 20 22 23 24 26 27 26 26 26 26 27 27 26 28 30 32 34 37 41 44 49 54 57 59 62 69 76 79 78 75 71
32 34 34 32 30 30 28 27 27 26 25 25 25 25 25 23 23 23 24 25 25 25 24 21 20 20 20 20 21 21 21 20 20 21 22 24 27 28 27 26 26 27 27 27 27 27 31 33 33 35 38 41 45 50 55 58 58 63 72 78 78 76 74
33 36 37 34 32 30 29 28 27 26 26 25 25 25 24 22 21 22 24 24 24 22 21 20 20 20 20 21 22 22 23 24 24 23 23 24 25 27 28 27 27 27 27 28 28 28 29 30 32 35 37 41 43 45 51 57 59 60 67 76 78 78 77
34 37 36 33 32 31 31 30 28 28 27 26 25 25 23 22 22 22 22 22 22 21 20 20 20 21 21 21 22 23 24 26 27 26 25 23 23 26 27 28 28 27 27 28 29 29 29 29 31 34 36 39 42 44 49 56 61 61 64 73 79 79 79
33 34 34 33 33 33 34 32 29 28 27 26 26 25 25 25 25 25 23 21 21 20 20 21 21 21 21 21 20 20 22 25 28 28 26 24 24 25 27 28 30 29 28 28 29 29 29 29 31 34 37 38 40 44 48 53 60 63 63 71 79 80 79
31 32 33 34 34 35 35 32 30 28 27 27 27 27 27 27 27 25 23 21 20 20 21 21 22 21 20 20 21 22 24 26 29 30 29 27 27 28 28 30 30 31 30 28 29 30 30 30 31 35 38 39 39 44 47 51 60 66 66 70 79 83 81
31 32 33 34 35 36 36 32 29 28 28 27 27 27 27 26 25 22 21 20 20 21 22 22 22 21 21 22 24 27 29 30 31 32 32 30 29 30 31 31 32 32 32 30 30 31 31 31 31 33 36 40 41 43 46 50 57 66 69 71 79 86 87
31 33 34 34 34 35 35 31 29 27 27 26 26 26 26 24 22 20 20 20 20 21 22 22 21 22 25 27 28 30 31 31 32 34 34 32 31 32 32 33 34 33 33 32 31 32 32 32 32 31 33 38 42 43 45 48 52 59 67 72 76 84 88
31 34 36 34 35 36 34 30 28 27 26 26 26 27 26 25 22 21 21 21 21 22 22 21 21 23 27 29 30 31 31 32 33 35 35 34 33 33 34 34 35 34 34 34 33 34 33 33 33 32 31 35 41 42 44 48 51 57 66 72 75 80 86
32 35 36 35 36 36 32 28 27 26 25 25 26 28 28 26 23 22 21 22 22 23 21 22 24 27 29 30 31 32 33 33 35 36 36 36 36 36 36 36 37 38 37 36 36 35 35 34 35 34 33 35 40 43 44 46 49 55 65 74 76 78 83
34 36 36 36 37 34 30 28 27 26 25 24 26 28 27 23 21 20 22 23 24 23 23 26 30 31 31 30 31 33 34 35 37 38 38 39 39 39 39 40 42 43 43 41 39 38 36 35 36 37 37 36 37 41 45 47 47 51 62 76 81 80 82
36 36 36 37 36 32 29 28 27 26 26 26 27 26 24 21 20 21 23 24 24 25 27 32 33 32 31 31 32 33 34 35 37 39 40 40 40 40 41 44 47 47 47 47 45 42 40 39 40 40 40 39 37 37 41 45 46 48 56 70 79 80 81
36 36 37 36 33 29 28 28 27 27 28 27 27 26 25 25 24 24 25 27 28 29 32 33 33 32 31 31 31 32 33 35 37 39 40 41 42 43 44 47 50 51 50 50 49 47 45 44 43 42 42 41 38 36 37 41 44 47 53 63 74 78 78
36 37 37 33 29 28 29 28 29 29 28 27 28 29 30 30 29 29 31 32 33 33 33 33 33 32 31 30 31 31 33 35 36 38 40 41 43 44 46 49 53 53 52 51 49 49 49 47 44 43 43 42 40 38 38 39 41 45 51 58 70 78 78
37 36 33 30 28 29 29 31 32 32 29 29 31 32 34 34 34 34 35 34 33 33 34 34 33 30 30 31 32 32 33 34 36 37 38 40 43 44 47 51 55 54 53 51 50 49 49 49 47 45 44 43 40 39 39 39 40 44 49 55 66 77 79
36 32 29 28 28 29 31 34 34 31 30 31 32 34 35 35 36 37 36 34 34 33 34 33 32 31 32 33 33 34 34 34 35 35 36 38 42 45 47 52 55 56 54 52 51 50 49 49 49 48 46 44 41 38 38 39 40 43 47 53 64 75 80
31 28 27 28 30 31 34 36 34 32 34 35 35 33 34 36 38 39 37 35 33 34 34 32 32 32 34 35 35 36 35 34 34 35 36 38 41 44 48 52 55 56 54 52 52 53 53 52 52 51 49 45 42 39 38 39 40 41 45 51 61 72 78
28 26 27 29 31 33 34 36 36 36 37 36 33 30 32 36 38 38 36 34 34 34 33 33 33 33 35 36 37 37 37 36 37 39 40 41 42 45 48 52 54 55 54 52 54 57 58 57 56 54 50 46 44 41 39 39 41 42 43 47 56 66 73
27 27 27 29 32 34 35 36 36 35 34 34 32 29 31 35 38 37 35 34 33 34 33 33 33 34 35 37 38 40 40 39 41 42 43 45 46 47 50 53 55 57 55 53 53 55 55 55 55 53 49 47 45 43 40 40 42 44 43 45 52 62 69
27 27 29 30 33 35 37 38 36 32 32 34 34 31 31 35 37 37 35 33 33 34 34 33 33 34 35 37 39 42 41 40 42 44 45 47 49 50 53 56 57 56 55 54 53 54 54 54 55 55 53 49 46 44 41 39 41 44 44 44 49 58 65
28 28 30 32 33 35 37 37 36 34 33 34 35 33 34 37 37 35 34 34 34 35 35 36 34 34 35 37 40 43 42 40 41 44 45 48 51 53 55 57 56 56 55 55 54 55 56 57 58 59 58 54 49 46 43 41 42 44 45 44 46 54 62
30 30 32 33 34 35 37 37 37 35 34 35 36 36 37 40 39 36 34 34 35 35 37 37 36 34 35 35 38 43 43 40 39 43 46 49 52 54 56 57 57 57 57 56 55 57 59 59 60 62 62 60 55 50 45 44 46 47 46 45 46 50 58
31 32 34 35 37 38 38 37 36 34 34 36 37 38 40 41 39 36 34 35 36 37 38 37 36 35 34 34 36 40 42 40 38 41 46 49 51 55 59 59 60 60 60 59 59 61 61 61 61 64 65 63 60 55 48 48 50 50 48 47 47 48 53
32 34 36 38 40 39 38 36 35 34 35 37 38 39 41 42 41 39 37 36 37 38 37 37 36 35 34 33 34 35 39 40 38 40 44 49 52 57 61 62 62 62 63 63 63 63 62 61 61 63 66 65 62 58 52 50 53 54 51 50 49 49 50
33 35 37 39 40 39 37 36 35 35 36 37 37 39 41 43 43 41 38 38 39 39 38 37 36 34 33 34 34 34 36 38 39 39 43 48 51 55 60 62 62 62 63 65 65 63 62 61 60 62 65 66 63 60 56 53 53 54 54 53 53 52 52
33 35 38 39 39 38 37 37 36 36 37 37 38 38 40 42 42 41 39 40 41 41 40 38 36 35 34 34 34 33 34 35 37 39 43 47 48 50 56 60 62 64 64 65 65 63 61 61 62 62 63 63 60 60 59 57 55 53 55 57 57 56 56
35 37 39 40 38 37 37 36 37 37 37 38 37 39 40 41 41 41 41 41 42 42 40 37 35 35 35 34 34 33 33 33 36 38 41 44 46 49 54 58 61 63 64 64 65 63 61 60 61 62 63 62 60 59 59 59 58 56 55 57 59 59 59
40 40 40 39 38 38 38 36 36 37 36 36 39 42 43 42 42 42 42 42 42 41 38 36 36 36 36 34 34 34 33 34 35 36 38 41 44 49 53 57 60 62 62 62 63 61 59 58 58 59 61 60 57 56 56 55 55 54 53 55 57 58 61
41 39 38 38 38 39 39 37 36 36 37 39 44 47 46 43 42 42 42 42 42 40 38 36 36 36 36 36 36 36 35 35 35 36 37 39 43 47 52 57 59 62 62 62 61 61 59 58 58 58 58 57 55 53 52 51 53 53 54 56 58 58 63
37 36 37 38 40 42 41 39 37 38 41 47 51 50 46 43 43 43 43 42 42 40 38 37 36 37 38 38 38 37 36 35 36 36 36 38 42 46 51 55 59 64 65 63 61 61 60 59 59 59 59 57 55 52 51 52 54 54 56 58 60 61 64

ECMWFFLT1_prec_cthk_252.txt.gz
RH
37 40 43 39 34 32 31 30 28 26 25 25 25 25 25 26 26 27 27 27 27 28 28 27 27 29 29 28 29 28 27 27 25 24 22 22 23 22 20 22 23 22 23 25 30 36 39 41 47 51 53 58 60 59 59 57 59 68 76 78 78 75 72
38 41 43 40 33 31 31 29 27 26 24 24 25 25 25 25 26 26 26 27 27 27 28 26 26 28 27 26 28 27 26 26 21 18 18 20 23 24 24 22 18 17 20 24 27 30 34 36 38 41 44 49 53 56 57 57 57 61 68 76 79 78 75
40 42 43 40 33 30 30 28 26 25 24 24 24 24 25 25 25 25 25 27 26 26 27 26 26 27 25 25 27 25 24 24 20 16 16 16 16 20 22 20 18 19 23 26 26 27 31 34 34 36 39 43 47 48 49 52 58 60 62 67 73 77 77
41 41 43 41 33 29 29 27 25 25 23 23 23 24 23 23 23 24 24 25 25 24 25 25 25 25 24 24 24 23 23 22 19 17 17 16 15 15 15 17 22 26 26 26 25 26 27 28 29 33 36 39 41 41 40 43 49 54 58 59 61 66 71
43 44 45 44 37 32 30 29 26 24 23 22 22 23 22 21 22 23 23 24 24 24 24 25 24 24 24 24 21 19 20 21 22 23 23 22 20 21 20 20 23 26 27 27 25 26 26 26 28 30 31 32 33 33 33 36 38 42 48 54 57 59 62
46 47 48 46 41 36 33 31 27 23 22 22 21 22 21 21 21 21 22 23 23 23 24 24 24 24 24 20 16 15 18 22 25 26 26 25 26 27 27 26 24 24 26 28 26 26 27 26 25 25 25 25 25 28 31 35 38 37 36 41 49 55 59
48 48 48 46 42 40 39 35 30 26 24 22 22 23 22 21 20 19 21 22 23 24 24 24 25 24 22 19 16 17 19 24 26 25 26 27 28 28 28 28 28 27 27 27 27 27 26 24 22 23 25 26 28 33 37 40 45 43 37 36 39 45 56
49 47 46 43 39 41 42 37 31 30 26 23 23 24 23 22 20 20 21 22 24 24 24 25 24 21 19 20 22 23 24 27 27 26 27 28 27 27 28 28 28 28 28 28 27 25 22 23 24 26 29 30 31 34 37 39 41 43 43 41 37 37 44
47 44 43 42 39 38 38 31 27 27 26 24 24 24 24 24 23 22 23 24 25 25 25 26 22 19 20 24 25 26 27 28 27 27 28 27 27 27 27 27 27 27 27 28 28 25 24 26 28 29 29 28 25 27 33 37 39 41 44 44 39 34 36
45 43 42 41 38 35 32 29 27 27 28 27 25 24 24 25 24 24 24 25 25 25 26 26 23 23 26 26 25 27 27 27 26 27 27 27 27 27 27 27 27 27 27 28 29 29 29 28 27 27 26 23 22 23 29 36 39 40 42 44 41 34 32
42 41 38 34 33 31 29 29 29 29 30 28 25 25 26 26 25 25 25 26 26 27 27 26 26 27 28 26 25 26 26 26 27 27 26 27 27 27 27 27 27 28 28 28 29 29 29 28 27 26 25 23 23 22 25 31 36 39 40 41 40 38 36
41 40 38 33 30 29 29 29 29 30 30 28 27 27 27 27 27 26 27 27 27 28 28 28 29 29 27 26 27 27 26 27 27 27 27 27 27 27 27 26 27 27 27 28 29 28 28 28 28 27 27 26 24 23 23 27 33 40 44 41 35 35 40
41 42 41 35 30 29 30 29 30 31 32 29 29 30 28 27 27 27 28 29 29 30 30 30 30 30 28 28 27 27 27 27 26 27 28 27 27 27 26 26 26 27 27 28 28 27 27 27 28 28 28 28 27 26 25 26 30 36 43 45 38 33 34
43 43 41 35 32 33 32 30 31 33 34 32 32 31 29 28 27 27 29 30 31 31 32 31 30 30 29 28 27 27 26 27 27 27 28 28 27 26 27 27 26 27 28 28 28 28 28 29 29 29 29 29 28 28 27 27 31 35 38 42 41 35 32
44 43 40 38 37 36 33 32 34 36 36 34 33 32 29 28 28 28 29 31 31 32 32 31 29 29 28 27 26 27 26 27 27 28 28 28 28 27 26 26 26 27 28 28 28 29 29 30 30 30 30 29 30 31 32 31 36 42 43 41 39 34 31
41 43 44 44 45 43 37 36 38 37 36 34 33 31 29 28 28 29 30 30 32 33 32 30 29 29 28 27 26 26 26 27 27 28 29 28 28 27 26 26 26 27 27 28 29 29 29 30 31 31 32 32 33 35 37 38 40 45 47 45 43 37 31
39 43 46 48 48 45 40 38 38 37 35 33 32 30 28 28 29 30 30 32 33 32 30 30 30 29 28 27 26 26 26 27 28 28 28 29 29 27 26 26 26 26 28 28 29 30 30 31 32 33 33 34 36 38 40 41 42 45 47 48 48 44 36
41 44 46 47 47 43 38 37 38 37 35 32 30 29 28 28 29 30 31 33 33 31 31 33 33 32 29 28 27 26 27 27 28 28 28 29 29 28 27 26 26 26 27 29 30 30 30 31 32 34 35 36 38 40 43 44 44 47 49 49 50 49 43
43 45 45 45 44 40 37 37 37 37 34 30 29 28 28 28 29 31 33 34 33 32 32 34 35 33 31 28 27 27 27 28 28 28 28 29 28 28 27 27 27 27 27 28 30 30 29 30 33 35 39 41 42 43 45 46 46 48 50 50 51 51 47
40 44 45 43 40 38 37 37 37 38 33 29 28 27 28 29 31 33 34 34 34 34 35 35 35 35 31 29 27 27 27 28 28 29 29 29 29 28 27 27 28 28 28 28 29 30 30 31 34 38 42 44 45 45 46 47 47 47 48 51 52 53 51
40 43 43 41 39 37 36 35 36 36 31 28 28 29 29 30 32 34 35 34 34 36 37 36 36 36 32 28 28 28 27 28 29 29 29 30 30 29 27 27 28 28 30 30 31 32 32 33 35 39 43 45 46 45 45 46 47 47 47 49 52 54 53
45 43 40 38 39 39 38 35 33 31 29 28 29 30 30 32 33 35 37 35 35 37 38 36 36 35 32 29 27 27 27 28 28 29 29 30 30 29 27 28 29 29 31 32 33 34 35 36 39 41 44 47 47 47 46 45 46 47 48 49 51 53 51
46 44 40 40 39 37 37 37 34 30 29 29 30 31 32 33 34 36 37 36 37 38 37 36 35 34 32 30 28 28 28 27 28 29 29 30 31 30 29 28 28 29 32 33 34 35 36 38 41 43 46 48 49 49 48 46 46 47 48 48 51 53 52
45 43 41 41 39 36 38 39 35 32 31 30 30 31 34 34 34 34 35 35 37 39 38 36 35 34 34 32 30 30 29 28 29 29 30 30 30 31 30 28 26 27 32 34 35 36 38 41 43 44 46 48 49 49 46 46 46 47 48 49 50 53 54
44 41 41 41 40 40 39 37 34 33 32 30 30 31 33 34 33 34 34 35 38 39 39 37 35 35 35 33 31 31 29 28 29 29 30 31 31 31 31 30 27 26 29 33 35 36 39 42 44 46 46 47 48 46 43 44 45 45 47 51 53 54 55
41 39 39 39 39 37 35 34 34 35 32 30 31 32 33 33 33 34 35 37 39 39 38 37 36 36 35 33 32 31 30 29 30 31 31 32 31 30 30 30 29 27 29 31 33 36 39 41 43 46 47 47 48 46 43 44 46 45 47 51 54 57 58
38 38 38 38 37 35 35 37 39 39 36 33 32 32 33 34 34 35 37 39 39 38 37 36 36 35 35 33 32 31 30 30 32 32 32 33 33 32 31 30 29 27 28 30 33 38 42 42 43 46 47 48 50 50 46 45 49 50 49 50 52 54 56
38 38 37 37 36 37 40 44 45 45 43 39 34 33 34 36 36 37 39 40 39 38 37 37 36 36 35 34 32 30 30 32 33 33 33 33 33 33 31 30 30 28 28 28 32 39 44 43 42 45 48 48 50 52 49 49 54 55 52 53 53 53 54
36 34 33 34 36 41 45 45 45 43 41 36 34 34 36 37 38 39 40 39 39 39 39 37 37 36 35 34 33 32 32 32 32 33 33 33 33 32 31 31 31 30 29 28 31 37 43 42 41 44 47 48 49 50 50 53 59 60 56 54 54 54 55
33 31 32 36 41 43 43 41 39 36 34 32 33 35 37 39 40 40 39 38 38 38 38 38 38 38 38 36 34 32 32 32 32 33 33 33 32 31 31 30 30 29 30 29 30 34 39 41 41 43 47 48 48 50 51 54 60 61 59 56 56 55 55
35 35 36 39 41 41 38 36 34 32 31 33 35 37 38 39 40 39 39 38 37 37 39 40 40 40 39 37 34 32 33 33 33 33 32 31 30 29 28 29 29 29 30 29 29 31 36 40 42 45 47 49 50 50 52 56 61 63 61 59 58 58 57
37 36 35 35 35 34 33 33 33 34 35 38 39 40 39 39 39 40 39 37 36 38 41 41 41 41 39 36 34 33 34 33 33 33 32 30 28 27 28 28 29 30 31 31 31 32 34 39 43 45 47 50 51 52 54 58 62 62 62 62 62 63 62
37 35 33 32 31 32 34 36 38 39 40 42 42 41 40 39 39 39 39 38 40 42 42 41 42 41 39 35 34 35 35 34 33 33 31 30 28 28 29 30 31 32 33 33 33 33 35 38 41 42 43 46 49 52 56 60 63 62 63 66 67 67 65
35 33 32 32 33 36 39 40 41 42 43 43 42 41 39 39 39 39 40 42 42 42 41 41 42 41 38 35 35 35 35 35 33 33 31 30 30 31 32 33 34 35 35 34 35 35 34 36 37 37 37 40 45 51 57 63 66 64 63 67 70 70 68
31 31 32 35 38 40 42 42 42 43 42 41 40 39 39 39 39 40 41 42 41 40 41 40 39 37 36 36 36 36 36 35 33 33 32 31 31 32 33 35 35 36 35 34 35 35 35 34 35 36 36 40 46 53 58 63 65 65 64 65 68 69 69
32 33 36 39 41 41 42 43 43 42 41 40 40 39 40 40 40 40 40 40 40 41 40 38 35 35 37 36 35 36 36 35 34 33 33 33 33 33 34 34 35 35 34 32 33 34 34 34 35 36 38 42 49 55 60 62 63 61 60 60 60 64 66
35 37 38 41 42 43 43 44 43 42 41 40 41 41 41 42 41 40 40 40 42 42 40 37 35 35 36 36 35 35 36 35 35 35 34 34 34 34 34 34 34 34 34 34 34 34 34 35 36 38 42 49 54 58 61 63 61 59 57 56 56 57 59
36 38 40 42 43 44 43 42 41 40 39 41 42 42 41 41 41 40 41 42 43 42 41 38 36 34 33 35 36 35 35 35 35 36 37 36 35 35 36 36 35 35 35 37 38 38 37 38 40 45 53 60 62 62 63 63 61 59 57 56 56 56 55

ECMWFFLT1_prec_cthk_258.txt.gz
RH
49 46 42 39 39 40 39 39 39 37 32 28 27 25 25 28 29 25 23 22 21 21 23 23 25 26 23 22 24 26 26 25 24 23 22 21 19 19 20 20 19 19 18 18 20 23 24 24 25 25 25 25 28 34 39 42 45 50 54 56 56 57 59
50 47 44 41 41 41 41 40 39 34 28 25 24 23 23 26 27 24 22 23 21 19 21 22 23 25 24 22 22 25 26 25 23 21 19 19 18 20 21 20 20 20 19 20 22 24 24 25 25 25 25 25 25 30 35 38 41 44 48 53 56 58 58
50 49 46 43 43 42 40 41 38 32 27 25 23 21 22 23 24 24 23 24 23 19 18 20 24 25 23 21 20 21 21 20 19 17 15 16 17 18 18 18 20 21 21 21 21 23 24 24 25 25 26 25 26 28 31 33 34 34 37 43 49 52 55
50 50 47 45 43 42 41 41 37 30 25 23 22 22 23 23 24 24 24 24 23 22 20 20 24 26 25 20 17 16 16 15 15 14 14 16 18 19 19 17 17 18 19 20 21 24 26 26 26 26 26 26 26 26 27 28 27 27 29 34 39 43 46
49 49 47 45 44 42 42 40 33 26 22 21 21 23 23 23 24 25 24 24 24 24 23 22 24 26 24 21 18 15 14 13 13 13 14 16 17 19 21 20 19 18 17 19 22 25 26 26 26 26 26 25 25 24 24 25 24 24 25 28 31 34 37
49 48 46 44 42 41 41 38 30 24 22 21 21 24 24 23 24 24 24 25 24 23 23 23 24 24 22 20 18 15 14 14 13 13 15 18 19 21 23 23 23 21 21 22 24 25 25 25 25 25 24 23 22 24 25 25 26 25 26 27 26 25 28
49 48 46 43 41 41 41 36 29 25 24 23 22 25 26 26 26 25 24 24 23 23 23 23 22 22 21 20 17 15 14 14 14 16 18 21 22 24 26 26 25 25 25 25 26 26 26 24 24 24 23 23 24 26 28 28 29 29 29 29 26 23 24
48 46 45 42 41 42 39 33 27 25 25 24 24 25 28 30 28 24 22 21 20 21 22 22 22 23 22 20 16 15 15 16 17 19 22 24 26 26 26 27 27 27 27 26 26 27 26 25 24 23 23 23 24 26 28 28 29 28 28 28 25 24 24
46 46 45 42 41 40 37 33 30 28 27 25 25 26 28 31 30 25 22 21 19 21 23 23 24 23 21 18 16 17 18 18 20 22 24 27 28 27 27 26 26 27 26 26 26 26 25 25 24 23 23 23 23 24 25 25 26 26 25 24 23 23 25
45 45 45 42 41 39 37 37 37 36 33 28 25 27 30 32 30 27 25 24 20 21 23 23 22 20 19 18 18 20 20 21 22 24 26 27 27 27 26 25 24 25 24 25 25 25 25 25 24 23 23 24 24 24 24 24 25 24 24 23 22 23 24
44 44 43 42 42 41 40 42 43 42 38 32 28 29 31 32 30 27 25 24 21 21 23 23 22 21 20 20 21 22 23 24 26 26 27 27 26 26 25 24 24 23 23 23 24 24 24 24 24 24 24 24 24 25 25 25 25 25 26 25 24 23 23
41 42 43 43 43 42 41 43 44 43 41 37 31 30 31 30 29 26 24 23 23 25 27 26 25 23 22 22 23 23 24 27 29 29 28 28 27 26 26 25 25 23 23 22 23 23 23 24 24 24 24 24 24 24 25 25 26 27 27 26 26 24 24
40 41 42 42 43 42 41 42 43 43 42 38 34 31 30 29 27 25 25 24 24 27 28 27 25 23 23 23 24 25 27 30 31 30 29 29 28 28 28 27 26 25 24 23 24 23 23 24 23 23 24 25 25 24 24 25 26 27 27 27 27 26 25
40 41 41 41 41 40 41 43 43 43 43 41 37 32 28 27 26 26 26 26 26 27 26 25 24 24 24 25 26 29 32 34 32 30 30 30 30 30 29 28 27 25 25 25 24 25 24 24 24 24 24 24 25 25 26 26 27 28 28 28 29 28 28
40 40 40 40 40 39 41 43 44 44 45 42 38 33 28 27 27 27 28 27 26 26 25 25 26 27 27 27 28 33 37 37 35 31 30 30 30 30 29 27 26 25 24 24 24 25 26 25 25 24 24 24 25 26 27 28 28 28 29 29 30 31 30
41 40 40 40 40 41 42 44 45 45 43 40 36 33 32 32 30 28 28 27 26 27 28 29 31 33 32 30 32 36 39 39 37 34 31 29 29 29 28 27 25 23 23 24 25 25 26 26 26 25 25 25 25 26 27 27 28 29 29 30 32 32 31
42 40 40 39 40 41 44 46 46 42 39 38 36 35 36 36 34 30 28 27 27 29 30 32 34 35 33 32 35 39 40 39 38 36 33 30 30 29 28 26 24 23 22 24 25 26 26 26 26 26 26 26 25 26 26 27 28 28 29 29 31 32 32
42 41 41 40 41 44 46 46 43 40 39 39 39 39 40 39 36 32 29 28 29 31 33 34 34 33 33 35 37 40 39 39 39 38 36 34 32 31 29 27 25 24 23 22 24 25 26 26 26 26 26 27 27 27 27 27 28 29 30 30 31 33 34
41 41 41 43 44 44 44 42 41 41 41 41 41 42 42 41 38 35 32 30 31 33 33 33 33 33 33 36 38 39 39 39 39 39 39 37 35 33 30 28 27 26 24 22 23 25 25 25 25 26 27 27 28 28 28 29 29 30 31 31 32 34 37
42 42 43 44 45 43 41 41 42 42 43 44 45 45 43 41 39 37 35 33 33 33 33 34 35 35 35 37 39 40 40 40 40 40 40 39 37 35 32 28 27 27 26 24 23 24 26 26 25 26 26 26 27 28 29 30 31 32 32 32 34 36 38
45 45 45 44 44 44 43 44 45 46 47 47 47 46 43 41 40 38 36 35 34 34 34 36 37 37 37 38 39 40 40 40 40 40 40 39 38 36 32 29 28 28 27 26 25 25 26 26 25 25 25 25 26 28 30 31 32 33 34 34 36 37 39
46 46 45 45 45 46 46 47 48 49 49 49 48 46 43 41 39 36 35 36 36 35 36 37 38 38 39 39 39 40 40 40 40 40 39 38 37 35 33 31 30 28 28 28 27 27 26 25 25 25 24 25 26 28 30 32 33 36 37 37 38 39 40
46 45 46 47 48 48 49 49 50 49 50 49 46 43 42 40 37 34 34 35 35 34 36 38 39 40 40 40 40 41 41 41 40 40 39 37 36 35 33 31 30 29 29 29 29 28 28 28 27 27 26 26 26 27 29 31 35 38 39 40 40 41 41
47 48 48 48 48 49 49 50 50 50 49 46 43 42 41 38 36 35 34 33 33 35 36 38 41 41 41 41 41 41 41 41 40 39 38 37 36 35 33 31 30 30 29 30 30 29 29 29 30 30 30 28 26 27 29 30 34 38 40 41 42 42 43
48 48 48 48 48 49 50 50 49 48 46 44 43 42 39 35 33 33 33 33 36 37 37 39 42 43 43 42 42 41 41 40 39 39 39 38 37 35 33 32 31 31 31 31 31 30 30 30 31 31 32 30 28 27 29 30 32 35 37 40 42 43 43
48 49 49 50 49 49 49 49 48 46 45 44 42 39 36 33 32 32 35 37 39 38 38 41 43 43 42 42 40 40 39 39 39 39 39 38 37 34 33 32 31 31 31 32 31 32 32 32 32 32 32 31 31 31 30 30 30 31 34 38 40 41 43
48 49 49 49 48 47 47 46 45 43 43 42 39 35 33 31 33 37 39 39 40 40 40 41 41 42 41 40 39 39 39 39 39 39 39 38 36 34 32 32 32 32 32 32 32 32 32 32 32 31 32 32 33 33 32 31 30 30 33 37 39 40 41
47 47 46 46 44 44 43 43 43 42 41 38 35 33 33 34 37 40 40 40 41 41 40 40 40 40 39 38 38 39 38 38 38 39 39 36 34 32 31 32 33 33 33 33 33 32 32 31 31 30 30 30 31 32 32 31 29 29 30 33 35 36 38
42 41 42 42 43 43 43 44 43 40 38 35 34 36 37 37 38 39 40 41 42 41 41 41 40 39 39 39 38 37 36 36 36 37 37 34 33 32 32 33 33 33 32 32 32 33 32 31 31 30 30 29 28 29 30 29 29 28 28 29 31 33 36
38 40 40 42 43 44 44 43 41 38 37 37 37 37 37 36 38 39 41 41 41 40 40 40 39 39 38 37 35 35 35 35 36 37 36 34 33 33 33 33 33 32 31 31 31 32 31 31 31 31 31 30 29 28 29 29 30 29 28 29 32 35 38
42 42 42 42 42 42 41 39 37 37 38 38 37 37 38 39 40 41 40 39 39 39 40 39 39 38 37 36 36 36 35 34 35 36 35 34 34 34 34 34 33 32 31 31 31 32 32 32 32 32 32 32 31 30 31 32 32 31 30 30 31 34 36
39 39 40 40 39 38 37 37 36 36 36 36 36 38 41 43 42 40 38 38 39 40 40 38 38 37 37 37 36 35 34 35 35 35 35 35 35 36 35 34 33 32 32 32 32 33 33 34 34 34 34 33 32 32 32 33 34 34 34 32 32 32 33
38 39 40 39 38 37 37 37 38 37 35 35 38 42 43 43 42 40 39 39 40 40 39 38 38 38 37 36 35 34 34 35 35 36 36 37 36 35 34 34 35 35 36 36 36 36 36 36 36 36 36 35 34 33 33 34 35 35 35 35 34 33 33
40 41 40 39 38 36 35 36 36 35 35 37 41 43 43 42 41 39 40 41 41 40 38 39 38 36 35 34 34 34 34 35 36 37 36 35 34 33 35 37 39 41 42 43 43 42 41 40 41 41 41 40 39 38 37 36 36 36 36 36 35 34 34
36 34 34 34 32 31 31 32 34 35 38 41 42 42 41 40 40 40 42 42 41 40 39 39 37 34 35 34 34 35 35 35 36 36 35 33 32 34 39 42 43 46 47 48 49 49 49 47 47 48 48 48 48 48 46 43 41 40 39 38 37 37 37
31 29 28 28 28 30 33 36 38 40 41 41 41 40 40 39 39 41 42 41 41 41 39 37 35 34 35 35 35 35 35 34 34 34 32 31 33 38 42 45 46 48 49 50 52 54 54 54 54 55 55 55 55 55 55 53 51 48 47 47 47 47 47
33 30 28 29 32 36 39 41 42 42 40 40 40 39 39 39 39 41 41 41 41 40 36 35 36 35 35 36 35 35 34 33 32 30 28 29 37 43 46 46 46 49 51 52 53 55 57 59 60 60 60 60 59 59 60 60 59 57 56 55 55 54 55
32 30 30 34 38 41 43 42 40 40 40 40 40 39 38 38 40 40 42 43 41 37 35 36 37 37 37 36 35 33 31 28 28 27 27 32 39 46 48 47 47 49 53 56 58 61 63 65 65 64 63 64 64 64 65 66 66 65 64 63 62 61 63

ECMWFFLT1_prec_cthk_264.txt.gz
RH
51 47 45 45 44 42 38 34 31 28 26 25 24 23 24 21 19 20 22 21 20 19 17 18 21 23 22 21 22 23 23 23 22 21 19 17 16 16 16 17 17 18 18 17 17 17 17 17 19 21 22 23 24 24 25 25 25 26 26 28 29 31 38
51 46 43 42 41 39 35 30 27 25 24 25 24 23 23 21 20 22 23 22 22 21 20 19 20 21 21 20 21 22 22 21 18 16 15 14 14 14 14 15 16 17 18 18 19 19 19 21 21 23 24 24 25 24 24 25 25 26 26 26 27 27 29
51 48 44 42 41 39 34 28 27 26 25 24 23 22 23 22 22 23 23 24 23 22 22 21 21 22 21 21 21 22 22 19 16 14 14 13 13 13 14 16 16 18 19 20 20 21 21 23 24 25 26 25 26 26 25 25 25 25 26 25 25 26 27
52 50 46 44 42 40 35 29 28 28 26 25 24 22 23 23 24 25 24 24 24 24 23 23 23 23 23 24 24 23 21 18 15 14 14 14 14 16 18 20 22 22 23 23 23 22 22 22 23 24 25 25 25 25 25 25 25 25 25 25 25 25 26
53 52 49 46 44 42 37 32 32 30 26 26 28 26 25 25 26 26 26 25 25 25 24 24 24 24 25 25 24 23 21 18 16 15 15 16 17 20 23 25 25 25 25 25 24 24 22 21 21 21 21 21 21 22 22 23 23 24 24 24 24 25 26
53 52 51 48 45 43 39 37 36 32 26 28 32 33 31 28 26 26 26 26 25 25 24 24 25 25 26 25 24 22 19 16 16 16 16 17 19 21 23 24 24 24 24 24 24 24 23 23 22 21 21 21 20 20 20 20 21 21 22 23 24 25 26
53 53 51 50 48 44 40 39 39 34 29 31 35 37 36 33 29 25 24 25 24 24 23 23 24 26 26 25 23 20 18 17 17 17 18 19 20 21 22 23 24 24 24 24 24 23 22 22 23 22 22 23 23 23 23 22 22 21 22 22 22 23 25
54 53 51 50 48 44 41 41 40 36 33 34 37 39 38 35 31 25 22 22 22 21 22 21 22 23 24 23 21 20 19 19 19 19 21 22 22 22 24 25 24 25 24 24 23 23 22 21 21 22 22 23 23 24 26 26 25 24 24 23 22 22 22
54 54 52 50 48 44 42 41 39 36 36 36 37 38 37 36 31 25 22 22 21 21 22 21 21 22 23 23 22 22 22 21 22 22 23 24 24 25 25 26 25 25 24 23 23 22 21 20 20 21 22 23 23 24 24 26 27 27 26 25 24 24 23
52 53 51 49 47 44 42 41 40 38 38 38 38 39 39 37 32 27 25 24 23 23 24 23 23 24 25 25 23 22 22 22 23 24 25 26 26 26 25 25 25 25 25 24 23 22 21 19 19 20 21 23 24 24 24 24 25 27 26 26 25 25 24
51 52 51 49 47 45 43 42 42 41 40 40 41 41 40 38 34 30 28 27 27 28 27 26 25 26 26 25 23 23 23 24 25 26 26 26 26 25 25 26 27 27 27 26 25 23 21 20 20 20 21 23 24 25 25 24 24 25 25 25 25 25 25
48 48 48 48 46 45 42 41 40 40 40 40 42 42 42 40 36 32 31 31 31 32 31 30 28 27 26 24 22 23 24 25 26 27 28 27 26 26 27 28 29 29 29 28 27 25 23 21 21 21 21 23 25 26 26 26 25 25 25 25 25 25 24
46 45 45 45 44 43 42 40 39 39 40 40 42 43 43 41 37 34 34 34 34 35 35 34 31 27 25 24 23 24 25 26 26 27 28 28 27 28 29 30 31 32 31 30 28 26 24 22 21 21 21 22 25 27 28 28 26 26 26 26 26 25 25
46 45 44 45 44 43 42 40 39 40 40 42 44 46 46 44 39 37 38 38 37 38 38 37 33 28 26 25 26 27 27 26 26 28 29 29 29 30 31 32 33 35 35 33 30 27 25 23 22 21 22 22 24 27 28 28 28 27 27 26 26 26 25
46 46 45 45 44 43 42 40 40 40 42 44 46 49 49 46 41 40 42 41 41 42 42 40 36 31 27 27 28 29 27 26 27 29 30 31 31 33 34 35 36 37 38 37 34 31 27 24 23 22 22 22 23 25 27 27 27 27 28 28 27 27 26
45 46 45 45 45 44 44 43 42 43 45 46 47 50 49 46 43 43 44 44 43 46 46 44 40 35 32 30 30 29 28 28 29 31 31 32 32 33 34 36 37 38 38 37 37 35 32 29 26 24 24 25 24 25 26 26 26 26 27 28 28 28 27
45 46 45 45 46 46 46 46 46 47 48 50 50 50 50 47 46 46 46 45 47 49 50 46 42 38 35 33 31 30 29 29 29 30 31 32 32 33 35 37 38 39 38 37 37 35 34 32 30 28 28 28 27 27 27 26 26 26 25 26 27 28 27
47 46 46 46 46 47 47 47 48 48 49 50 51 51 50 49 48 48 48 48 50 52 51 46 42 39 36 34 31 30 30 29 28 29 30 31 33 35 37 38 39 39 39 38 36 34 34 32 32 30 30 31 30 29 28 27 26 25 25 25 25 26 27
48 46 46 46 46 46 47 49 50 49 48 49 49 49 48 48 48 49 50 51 53 53 50 46 43 40 36 33 31 30 31 31 30 31 32 34 35 37 38 38 38 37 37 36 35 32 31 30 30 30 31 32 31 30 29 26 26 26 25 25 25 25 26
47 47 47 47 47 48 48 52 53 51 48 48 48 48 47 48 50 51 52 53 54 53 49 46 44 41 37 34 33 33 33 34 35 36 37 39 38 38 37 37 36 35 34 34 32 30 30 29 29 29 30 32 32 31 29 28 27 27 27 26 25 25 26
47 48 47 47 48 49 51 54 54 51 49 49 49 48 49 51 52 53 54 54 53 52 48 46 44 41 37 36 35 34 35 36 38 39 39 39 37 36 35 35 34 33 33 32 31 30 31 30 30 30 30 31 31 31 30 30 29 30 29 29 27 26 26
46 47 47 48 48 49 51 53 52 50 50 50 49 51 53 54 54 54 55 54 52 50 48 46 43 39 36 35 34 34 35 37 38 38 38 36 36 35 34 34 33 32 32 31 30 30 30 31 32 32 31 30 30 29 29 29 30 30 31 31 29 28 27
45 46 47 48 49 50 51 51 51 51 51 50 52 55 56 54 54 54 54 53 51 49 48 46 41 35 33 33 33 33 36 38 38 37 37 36 36 35 33 32 31 30 30 31 30 29 29 31 32 32 31 30 29 28 27 27 27 28 29 30 30 29 28
45 46 47 48 50 51 51 52 52 51 52 54 58 59 55 53 54 54 53 52 50 48 46 42 37 33 33 34 34 35 37 38 39 38 38 37 35 33 30 29 28 28 29 31 32 31 31 31 31 31 31 30 29 27 27 26 26 26 27 28 29 30 29
47 47 49 49 50 51 52 52 52 52 53 58 60 57 54 54 55 53 52 50 49 46 43 39 35 35 36 36 35 36 38 39 39 39 38 36 34 31 28 27 27 27 28 31 32 32 31 30 31 30 29 28 28 27 27 27 27 27 27 28 28 30 30
48 48 49 49 50 51 52 52 52 53 54 55 55 54 53 54 53 51 50 48 46 44 40 36 35 36 37 36 37 38 39 40 39 38 37 35 33 30 28 27 27 27 28 29 30 30 30 29 29 29 28 28 28 28 28 28 28 27 28 28 28 29 29
47 48 49 49 51 52 52 54 54 53 53 53 53 53 52 51 50 49 48 46 44 41 37 35 36 37 38 38 39 40 40 40 39 38 36 34 31 30 29 28 28 28 28 29 29 29 29 29 29 28 28 27 28 28 29 30 30 29 28 29 29 29 30
47 49 51 53 55 55 55 55 54 53 52 52 51 50 50 50 49 48 46 44 42 37 36 37 38 39 39 39 40 40 40 39 39 36 33 32 31 31 30 30 30 30 29 30 30 30 30 28 27 26 26 26 28 31 33 34 35 35 34 33 32 32 31
49 52 54 56 56 56 56 53 50 50 50 50 49 49 48 47 46 45 44 42 39 37 38 39 40 39 39 39 40 40 39 38 36 33 32 32 32 31 31 31 31 31 31 31 32 30 28 26 25 25 26 28 31 34 36 38 39 39 39 39 38 36 35
52 55 57 56 56 55 54 51 49 49 49 48 47 45 44 44 44 43 41 38 37 38 39 40 40 40 39 40 40 40 38 35 34 33 33 32 31 30 30 31 30 29 29 29 27 26 25 24 25 26 28 30 32 35 37 39 40 42 43 44 43 43 42
54 57 57 55 55 56 54 51 48 47 45 43 40 38 39 40 40 39 37 38 39 40 40 40 40 39 40 40 39 38 36 34 34 33 32 31 29 28 27 26 26 26 25 24 24 24 26 27 27 29 31 34 36 38 40 42 43 45 47 49 49 50 48
56 58 57 56 56 54 51 46 42 40 37 35 32 32 33 35 36 37 39 40 40 41 40 40 39 39 40 40 38 36 35 35 33 32 30 28 25 24 24 26 26 27 27 27 27 28 29 29 29 32 35 38 41 43 46 48 50 52 54 57 59 59 59
58 59 57 54 50 46 42 37 34 32 29 27 27 29 32 36 39 41 42 41 40 40 39 39 39 40 40 39 37 36 34 33 31 28 26 24 23 24 26 27 28 29 29 30 30 30 30 30 32 36 40 43 46 49 52 54 57 59 61 63 65 66 66
56 55 51 47 42 38 36 33 30 28 26 27 31 34 38 41 42 42 41 40 40 39 39 39 40 40 40 38 35 33 32 30 28 26 25 25 26 27 27 27 27 28 30 31 32 32 32 34 38 41 45 48 51 53 55 57 60 62 63 63 64 65 66
51 49 45 42 38 35 32 29 27 27 30 34 37 39 41 43 42 41 40 39 39 38 39 40 41 40 39 36 32 31 31 29 28 27 28 29 29 27 26 26 27 29 31 32 34 37 39 42 44 46 49 52 54 55 57 59 61 62 62 62 62 63 65
46 42 39 36 32 29 27 27 29 32 35 39 40 42 43 43 41 40 39 38 39 40 40 40 40 38 36 33 31 31 30 29 28 30 30 29 27 25 24 25 28 33 35 36 39 44 47 49 50 51 53 54 55 58 60 61 60 59 60 63 65 66 66
40 38 35 33 31 30 31 32 34 36 39 41 42 43 43 42 40 39 38 39 40 41 41 39 38 36 33 32 31 30 30 30 30 29 27 25 25 26 26 26 30 36 39 41 44 48 50 52 55 56 57 57 58 60 61 61 59 57 59 62 65 67 67
37 36 35 34 34 33 34 35 36 38 39 40 42 42 41 40 39 39 39 41 41 41 40 37 35 34 33 33 31 30 31 31 29 26 25 26 27 29 30 32 35 38 41 44 47 50 53 56 58 59 59 61 62 61 59 59 58 58 59 62 66 68 67